Temperature
7 7 8 8 8 8 8 8 8 8 9 9 9 9 9 9 9 9 9 9 9 9 9 10 10 10 10 10 10 10 10 10 10 10 10 10 9 9 9 8 8 8 8
6 7 7 7 7 7 8 8 8 8 8 8 8 9 9 9 9 9 9 9 9 9 9 9 9 9 9 10 10 9 9 9 9 9 9 9 9 8 8 8 7 7 7
6 6 6 7 7 7 7 7 7 7 8 8 8 8 8 8 8 8 8 8 9 9 9 9 9 9 9 9 9 9 9 9 9 9 9 9 8 8 7 7 7 7 6
5 6 6 6 6 6 6 6 7 7 7 7 7 8 8 8 8 8 8 8 8 8 8 8 8 8 9 9 9 9 9 8 8 8 8 8 8 7 7 7 6 6 6
5 5 5 5 5 5 6 6 6 6 6 6 7 7 7 7 7 7 7 7 8 8 8 8 8 8 8 8 8 8 8 8 8 8 8 7 7 7 7 6 6 6 5
4 4 4 5 5 5 5 5 5 6 6 6 6 6 6 6 7 7 7 7 7 7 7 7 7 7 8 8 8 8 8 7 7 7 7 7 7 7 6 6 6 5 5
3 3 4 4 4 4 4 5 5 5 5 5 5 5 5 6 6 6 6 6 7 7 7 7 7 7 7 7 7 7 7 7 7 7 7 7 7 7 6 6 6 6 5
3 3 3 3 3 4 4 4 4 4 4 4 5 5 5 5 5 6 6 6 6 6 6 6 6 6 6 6 6 6 6 6 6 6 6 6 6 6 6 6 6 5 4
2 2 3 3 3 3 3 3 3 3 4 4 4 4 4 4 5 5 5 5 5 5 6 6 6 5 6 6 6 6 6 6 6 6 6 6 6 5 5 5 5 4 4
2 2 2 2 2 2 2 2 3 3 3 3 3 4 4 4 4 4 4 5 5 5 5 5 5 5 5 5 5 5 5 5 5 5 5 5 5 5 5 4 4 4 3
1 1 2 2 2 2 2 2 2 2 2 3 3 3 3 3 3 4 4 4 4 4 4 4 4 4 4 4 4 4 4 4 4 4 4 4 4 4 4 4 3 3 3
1 1 1 1 1 2 2 2 2 2 2 2 2 2 2 3 3 3 3 3 3 3 3 3 3 3 3 3 3 3 3 3 3 3 3 3 3 3 3 3 3 2 2
1 1 1 1 1 1 1 1 1 1 1 1 1 2 2 2 2 2 2 2 2 2 2 3 3 3 3 3 3 3 2 2 3 3 3 3 2 2 2 2 2 2 1
0 0 0 1 1 1 1 1 1 1 1 1 1 1 1 1 1 1 1 1 1 2 2 2 2 2 2 2 2 2 2 2 2 2 2 2 2 1 1 1 1 1 1
-0 -0 -0 -0 -0 -0 -0 -0 -0 -0 -0 -0 0 0 0 0 0 0 1 1 1 1 1 1 1 1 1 1 1 1 1 1 1 1 1 1 1 1 1 0 0 0 0
-1 -1 -1 -1 -1 -1 -1 -1 -1 -1 -1 -1 -1 -0 -0 -0 -0 0 0 0 0 1 0 0 0 0 0 0 0 0 0 0 0 0 0 0 0 0 -0 -0 -0 -0 -0
-1 -1 -2 -2 -2 -2 -1 -1 -1 -1 -1 -1 -1 -1 -1 -1 -1 -0 -0 -0 -0 -0 -0 -0 -0 -0 -0 -0 -0 -0 -0 -0 -0 -0 -0 -0 -0 -1 -1 -1 -1 -1 -1
-2 -2 -2 -2 -2 -2 -2 -2 -2 -2 -2 -1 -1 -1 -1 -1 -1 -1 -1 -1 -1 -1 -1 -1 -1 -1 -1 -1 -1 -1 -1 -1 -1 -1 -1 -1 -1 -1 -1 -1 -2 -2 -2
-2 -2 -2 -2 -3 -3 -3 -3 -3 -3 -3 -2 -2 -2 -2 -2 -2 -2 -2 -1 -1 -1 -2 -2 -2 -2 -1 -2 -2 -2 -2 -2 -2 -2 -2 -2 -2 -2 -2 -2 -2 -2 -2
-3 -3 -3 -3 -3 -3 -3 -3 -3 -3 -3 -3 -3 -3 -3 -3 -2 -2 -2 -2 -2 -2 -3 -3 -3 -2 -2 -2 -2 -2 -2 -2 -2 -2 -3 -3 -3 -3 -3 -3 -3 -3 -3
-3 -3 -3 -3 -3 -3 -3 -4 -4 -4 -4 -4 -4 -4 -4 -4 -4 -3 -3 -3 -3 -3 -3 -3 -3 -3 -3 -3 -3 -3 -3 -3 -3 -3 -3 -3 -3 -3 -3 -3 -3 -4 -4
-3 -3 -3 -3 -4 -4 -4 -4 -4 -4 -4 -4 -4 -4 -4 -4 -4 -4 -4 -4 -4 -4 -4 -4 -4 -4 -4 -4 -3 -3 -3 -3 -3 -3 -3 -3 -4 -4 -4 -4 -4 -4 -4
-4 -4 -4 -4 -4 -4 -4 -5 -5 -5 -5 -5 -5 -5 -5 -5 -5 -5 -5 -5 -5 -5 -5 -5 -4 -4 -4 -4 -4 -4 -4 -4 -4 -4 -4 -4 -4 -4 -4 -4 -4 -4 -4
-4 -4 -4 -4 -5 -5 -5 -5 -5 -6 -6 -6 -6 -6 -6 -6 -6 -5 -5 -5 -5 -5 -5 -5 -5 -5 -5 -5 -4 -4 -4 -4 -4 -4 -4 -4 -4 -4 -4 -4 -4 -5 -5
-4 -5 -5 -5 -5 -5 -6 -6 -6 -6 -6 -6 -6 -6 -6 -6 -6 -6 -6 -6 -6 -6 -6 -6 -6 -5 -5 -5 -5 -5 -5 -5 -5 -5 -5 -5 -5 -5 -5 -5 -5 -5 -5
-5 -5 -5 -5 -6 -6 -6 -6 -6 -7 -7 -7 -7 -7 -7 -7 -7 -7 -7 -7 -6 -6 -6 -6 -6 -6 -6 -6 -6 -5 -5 -5 -5 -5 -5 -5 -5 -5 -5 -5 -5 -6 -6
Wind_Speed
5 4 3 2 2 1 1 2 3 4 5 6 7 8 8 8 9 10 10 10 11 10 9 10 11 9 8 7 6 6 6 4 5 2 1 2 4 6 6 7 7 7 7
5 5 4 3 2 2 1 2 2 3 4 5 6 7 7 7 8 10 10 10 11 11 11 10 10 8 9 8 8 8 7 5 4 5 3 3 4 6 5 5 5 6 6
6 6 5 4 3 3 2 2 2 2 3 3 3 5 6 7 7 9 10 10 11 11 11 11 11 10 10 7 8 8 7 5 4 5 4 2 2 4 4 3 3 3 4
7 6 6 5 4 3 3 3 2 2 2 2 2 3 4 5 6 7 8 9 9 9 9 10 10 11 11 10 8 9 7 7 5 5 4 3 3 3 4 4 4 3 2
7 7 6 6 5 5 4 3 3 2 2 2 2 2 3 4 5 6 6 7 8 8 8 9 9 10 11 10 8 8 9 7 6 5 5 4 4 5 6 5 4 3 2
7 7 7 7 6 6 5 5 4 3 3 3 3 3 4 3 5 6 6 6 7 8 8 8 7 8 10 10 11 11 12 11 10 7 6 7 7 6 5 5 5 4 3
7 7 7 7 7 6 5 5 5 5 4 4 4 4 4 4 5 5 6 5 5 7 7 6 5 6 8 7 8 9 11 13 12 10 9 9 9 9 10 8 6 5 4
8 8 7 7 7 6 6 6 5 5 4 4 4 4 4 5 6 5 4 4 4 5 6 6 6 6 7 7 7 5 5 6 8 7 8 8 7 9 10 9 7 5 4
8 8 7 6 6 6 6 6 5 5 5 5 4 5 5 5 6 4 3 3 3 3 4 4 5 6 7 8 7 6 4 2 3 6 6 7 9 12 12 8 8 6 3
9 9 7 6 6 6 6 5 5 4 4 4 5 4 4 5 6 5 3 1 2 2 2 3 5 5 7 8 7 7 7 4 4 5 6 7 8 10 12 8 9 7 4
8 8 8 7 6 5 5 5 5 4 4 4 4 4 4 5 6 5 4 1 1 2 2 2 3 5 6 8 7 6 8 7 6 7 6 6 5 5 5 5 5 5 5
7 7 8 7 6 6 6 5 5 4 4 4 4 5 4 4 5 5 5 4 3 1 2 2 2 5 5 6 5 6 9 8 6 6 6 5 5 5 5 6 7 6 5
7 7 7 7 7 6 5 5 5 4 4 4 4 4 4 4 4 6 5 4 4 2 1 2 2 3 4 4 5 7 8 6 6 6 6 4 3 5 6 6 7 8 8
7 7 7 7 7 7 5 5 4 4 4 4 4 4 5 4 4 4 3 2 2 2 1 0 1 2 2 3 5 5 4 4 5 6 5 5 5 5 5 4 4 5 4
6 6 6 6 6 6 5 4 5 4 4 4 4 4 4 5 5 6 4 2 1 0 1 1 1 1 2 2 2 3 3 4 4 4 5 5 5 5 4 4 4 4 3
5 6 5 5 5 5 5 6 7 6 8 7 6 6 4 6 7 7 5 4 2 1 2 2 2 2 2 2 3 3 3 4 4 5 5 6 6 6 5 4 4 4 4
5 5 5 5 5 5 5 5 6 7 8 8 8 8 7 7 6 6 5 3 1 1 1 1 1 2 1 2 2 2 2 3 4 5 5 6 6 6 6 5 5 4 4
4 5 5 4 4 5 5 5 5 5 6 6 7 9 10 8 6 6 4 2 0 0 0 1 1 1 1 1 1 2 2 3 4 4 5 5 6 6 6 6 6 5 5
4 4 4 4 4 4 4 4 4 5 5 6 5 6 9 8 6 6 4 2 1 1 1 1 1 1 1 1 1 2 2 3 4 4 5 5 6 6 6 6 6 8 5
3 5 5 4 4 4 4 4 4 5 5 5 5 6 6 5 4 4 3 2 2 2 1 1 1 1 1 2 2 2 2 2 4 4 5 5 5 5 6 7 6 6 5
3 4 5 4 4 4 4 4 4 4 4 5 5 6 8 4 4 4 4 3 2 2 2 1 1 1 2 2 2 2 3 3 3 4 4 4 5 5 5 6 6 6 6
3 3 3 3 4 4 4 4 4 4 5 5 5 6 8 4 3 4 4 4 3 2 2 1 1 2 2 3 3 3 3 3 3 4 4 4 5 5 5 6 6 6 6
3 3 3 3 3 5 5 4 4 4 4 4 5 5 5 4 4 4 4 4 4 3 2 2 1 1 1 1 2 3 4 4 4 4 5 5 5 5 6 6 7 7 7
2 3 3 3 3 3 4 4 4 4 4 4 4 4 4 4 4 4 4 4 4 3 3 3 2 2 1 1 1 2 2 3 4 4 5 5 5 5 5 6 6 7 7
2 2 3 3 3 3 4 4 4 4 4 4 4 4 4 4 4 4 4 4 4 4 4 4 3 2 2 2 1 2 2 2 3 4 4 4 5 5 5 6 6 6 6
1 2 2 2 2 3 3 3 3 4 4 4 4 3 3 3 3 4 4 3 4 4 4 3 4 4 3 3 3 2 2 2 3 4 4 4 4 5 5 5 7 7 7
Wind_Direction
6 6 3 351 333 314 265 247 239 228 220 218 218 218 217 215 209 209 211 210 212 215 216 219 222 216 213 209 205 202 206 203 221 230 196 170 179 180 176 178 183 177 182
358 4 358 350 352 340 307 286 266 245 231 223 217 218 219 220 217 212 213 213 214 215 218 221 224 217 216 211 206 207 208 200 203 215 212 190 193 183 176 176 180 179 181
3 6 1 4 10 348 328 313 295 275 265 247 229 222 221 221 222 219 216 216 216 218 217 218 219 213 218 218 213 209 205 199 194 195 201 196 181 169 168 174 180 178 172
7 8 4 356 352 343 336 336 326 301 286 286 270 264 238 230 231 226 219 218 217 218 217 216 216 213 213 212 214 210 200 194 188 182 186 184 173 164 168 179 190 190 180
8 6 356 352 354 356 355 353 348 337 321 299 288 286 264 234 233 235 225 222 217 216 216 217 217 214 212 209 212 207 197 198 191 190 191 189 185 179 193 182 187 169 174
3 358 354 358 359 359 355 352 355 351 343 334 316 293 287 274 257 244 232 221 219 218 220 221 218 212 212 210 210 206 200 196 196 196 201 199 197 193 180 178 166 168 196
358 355 355 356 356 352 353 360 359 353 352 346 342 333 311 301 292 265 242 225 220 219 219 218 222 220 208 206 206 203 207 206 198 195 198 203 196 191 180 180 180 178 181
356 352 352 352 350 347 356 358 352 349 347 343 335 333 323 316 316 298 255 224 222 224 221 217 216 216 210 198 191 194 205 206 202 198 197 196 193 184 183 178 166 136 100
356 351 345 345 346 351 354 347 342 343 343 337 334 338 334 329 325 316 275 218 216 229 229 220 213 215 208 187 176 181 184 192 175 163 163 164 166 166 161 147 149 154 159
349 345 342 343 345 346 340 334 335 338 334 334 336 336 336 327 333 343 336 232 220 234 231 222 215 211 201 188 182 180 184 180 152 141 134 132 142 154 161 166 165 163 153
340 345 347 346 344 341 339 336 333 334 337 341 336 334 333 333 338 346 345 326 243 237 248 243 227 205 197 194 191 192 186 166 156 146 138 134 131 135 138 138 144 155 155
344 348 348 346 345 347 348 344 340 339 342 338 336 331 334 341 344 340 344 349 352 272 258 260 225 202 198 195 192 181 166 153 147 145 145 150 149 145 131 122 116 106 101
347 347 345 347 347 349 351 347 346 346 342 332 329 329 334 336 340 345 343 342 342 340 305 280 236 190 181 180 176 167 160 157 155 159 164 163 147 136 122 111 102 98 86
344 343 346 349 349 350 350 348 345 342 337 331 327 325 324 327 334 336 330 329 341 352 356 325 182 161 143 156 161 160 161 168 164 167 158 139 127 128 129 126 126 125 112
343 342 344 346 344 342 343 338 331 321 325 322 315 312 314 315 318 323 320 303 288 235 97 106 110 128 147 145 139 142 148 155 157 148 144 141 142 140 135 130 129 132 137
341 343 341 340 337 337 336 335 341 341 341 342 338 330 313 308 318 325 322 318 320 136 118 138 160 174 179 174 168 163 162 164 162 154 154 155 155 154 147 139 136 143 147
332 331 332 334 333 334 335 335 332 337 346 351 351 344 338 331 331 329 326 320 320 128 111 152 183 193 191 179 172 172 176 167 158 160 161 160 157 155 150 153 154 151 152
321 322 327 323 326 327 326 325 324 330 333 335 339 342 346 344 346 347 344 355 345 68 55 208 215 209 194 183 181 175 166 157 159 163 163 161 161 159 159 162 167 165 162
316 315 316 318 320 319 320 321 325 328 329 328 334 339 346 345 346 357 5 4 335 312 300 257 224 204 199 189 182 183 179 175 170 169 172 170 168 164 166 169 170 172 166
304 314 321 316 318 323 325 327 331 331 332 333 335 337 342 350 353 350 353 348 332 308 285 259 234 208 200 192 183 182 183 179 174 176 177 177 174 171 173 173 173 172 175
296 306 319 318 316 318 320 322 324 323 324 325 326 333 343 345 344 342 341 338 326 310 295 274 241 213 200 194 188 189 191 193 188 180 180 180 178 180 179 176 175 174 170
288 295 304 308 312 315 315 316 319 319 320 323 326 334 342 346 345 343 339 334 332 323 312 292 263 235 212 204 199 197 197 200 195 187 185 182 182 183 179 176 173 172 171
287 296 301 303 305 313 318 317 317 317 319 323 328 335 340 342 343 341 338 336 338 338 339 334 312 296 263 233 217 203 204 208 203 190 186 184 182 181 177 176 173 171 175
288 295 300 305 305 305 306 307 310 313 317 321 325 328 333 337 339 339 338 335 338 340 344 342 331 318 325 315 284 246 230 216 196 187 182 181 179 177 176 174 174 175 176
287 296 301 303 304 305 306 307 311 314 314 316 318 322 327 333 336 336 338 339 342 346 348 347 341 337 332 324 309 281 237 207 197 184 173 175 176 176 175 175 175 172 172
278 290 298 301 302 305 306 307 308 310 310 313 316 319 320 322 327 330 335 340 342 342 342 345 349 345 335 328 317 297 256 229 205 187 172 168 172 177 176 178 175 175 172
Height
1428 1427 1427 1428 1429 1430 1431 1433 1435 1437 1438 1441 1443 1445 1447 1450 1453 1455 1458 1461 1464 1467 1470 1473 1475 1478 1480 1482 1484 1486 1488 1490 1491 1491 1493 1495 1496 1498 1499 1501 1502 1502 1504
1427 1427 1426 1426 1427 1428 1429 1430 1431 1432 1434 1435 1437 1439 1441 1443 1446 1448 1450 1454 1456 1459 1462 1465 1467 1470 1472 1474 1476 1478 1480 1482 1484 1484 1485 1487 1489 1491 1493 1495 1496 1497 1498
1427 1426 1425 1425 1425 1425 1426 1426 1427 1428 1429 1430 1432 1433 1435 1437 1439 1442 1444 1446 1449 1451 1454 1457 1459 1462 1463 1466 1468 1470 1472 1474 1476 1477 1478 1480 1482 1484 1486 1488 1490 1491 1492
1427 1426 1425 1423 1423 1423 1424 1423 1424 1425 1426 1426 1427 1428 1430 1432 1434 1436 1437 1439 1441 1444 1446 1449 1451 1453 1455 1458 1459 1461 1464 1466 1468 1469 1471 1473 1475 1477 1480 1482 1483 1485 1486
1426 1425 1424 1423 1422 1422 1421 1421 1422 1422 1423 1423 1424 1425 1426 1427 1428 1429 1431 1432 1434 1436 1438 1441 1443 1445 1447 1450 1452 1453 1455 1457 1459 1461 1464 1466 1467 1470 1472 1475 1477 1479 1481
1427 1425 1424 1422 1421 1420 1420 1420 1420 1420 1420 1421 1421 1421 1421 1422 1423 1424 1425 1426 1427 1429 1431 1433 1435 1437 1439 1441 1443 1445 1447 1449 1451 1453 1456 1458 1460 1463 1465 1468 1470 1473 1475
1427 1425 1423 1422 1420 1419 1419 1418 1418 1418 1418 1418 1418 1418 1418 1418 1418 1419 1420 1421 1421 1423 1425 1426 1428 1429 1432 1433 1435 1437 1439 1441 1444 1446 1448 1450 1453 1456 1458 1461 1463 1466 1468
1427 1424 1422 1421 1420 1419 1418 1417 1416 1416 1415 1415 1415 1414 1414 1413 1413 1414 1414 1415 1416 1417 1418 1420 1421 1423 1425 1427 1428 1430 1431 1433 1436 1439 1441 1444 1447 1450 1452 1455 1457 1460 1463
1426 1424 1422 1420 1419 1418 1417 1416 1415 1415 1414 1413 1412 1411 1410 1409 1409 1408 1409 1409 1410 1411 1412 1414 1415 1416 1418 1420 1422 1423 1425 1427 1430 1432 1435 1438 1441 1443 1446 1449 1451 1454 1456
1427 1424 1422 1421 1420 1418 1417 1415 1414 1413 1412 1410 1409 1408 1407 1406 1405 1405 1405 1405 1405 1406 1407 1408 1409 1411 1412 1414 1416 1417 1419 1420 1422 1425 1428 1432 1435 1438 1440 1443 1446 1449 1451
1428 1425 1423 1421 1420 1418 1416 1415 1413 1412 1410 1408 1406 1405 1404 1403 1402 1402 1401 1401 1401 1402 1402 1403 1404 1405 1407 1408 1410 1412 1413 1416 1418 1420 1423 1427 1430 1432 1435 1438 1441 1445 1447
1428 1425 1423 1421 1419 1417 1415 1413 1412 1410 1408 1406 1405 1403 1402 1401 1400 1400 1399 1399 1398 1399 1399 1399 1400 1401 1402 1403 1406 1407 1409 1411 1414 1416 1419 1422 1425 1427 1430 1433 1436 1440 1443
1427 1425 1422 1420 1418 1416 1414 1412 1410 1408 1406 1404 1403 1401 1399 1399 1398 1397 1397 1396 1396 1396 1396 1396 1396 1397 1397 1399 1401 1403 1405 1407 1409 1412 1415 1418 1421 1423 1426 1429 1432 1435 1438
1426 1424 1421 1419 1416 1414 1412 1410 1408 1406 1404 1403 1401 1400 1398 1397 1396 1395 1394 1394 1393 1393 1393 1393 1394 1394 1395 1396 1397 1399 1401 1403 1406 1409 1411 1414 1417 1420 1423 1425 1429 1431 1434
1425 1422 1420 1418 1415 1413 1411 1409 1407 1405 1403 1401 1400 1398 1396 1395 1394 1393 1392 1392 1391 1391 1391 1391 1391 1391 1392 1393 1394 1396 1398 1400 1403 1405 1408 1410 1413 1416 1419 1422 1425 1428 1431
1423 1421 1418 1416 1414 1411 1409 1407 1405 1404 1402 1400 1398 1397 1395 1394 1392 1391 1390 1390 1389 1388 1388 1388 1388 1388 1389 1390 1391 1393 1395 1397 1400 1402 1405 1408 1410 1413 1416 1419 1422 1425 1428
1421 1419 1417 1414 1412 1409 1407 1405 1402 1401 1400 1398 1396 1394 1393 1391 1390 1388 1388 1387 1387 1386 1386 1385 1386 1386 1387 1388 1390 1391 1393 1395 1397 1400 1402 1405 1407 1410 1412 1416 1419 1422 1424
1420 1417 1415 1412 1410 1408 1405 1403 1401 1398 1396 1394 1393 1391 1390 1388 1387 1386 1385 1385 1384 1384 1384 1384 1385 1385 1386 1386 1388 1389 1391 1393 1395 1397 1399 1402 1404 1407 1409 1412 1415 1418 1421
1417 1415 1413 1410 1408 1406 1404 1401 1399 1397 1395 1393 1391 1389 1388 1386 1385 1384 1383 1383 1382 1382 1382 1382 1383 1383 1384 1385 1385 1387 1389 1391 1393 1395 1397 1399 1402 1404 1406 1409 1412 1415 1417
1415 1412 1410 1408 1406 1404 1402 1399 1397 1395 1393 1391 1389 1387 1385 1384 1383 1382 1381 1381 1380 1380 1380 1380 1380 1381 1382 1383 1384 1385 1387 1388 1390 1393 1395 1397 1399 1401 1404 1407 1409 1411 1414
1411 1410 1408 1406 1404 1402 1400 1397 1395 1393 1392 1390 1388 1387 1385 1383 1382 1381 1380 1379 1379 1378 1378 1378 1378 1378 1379 1380 1382 1383 1384 1385 1387 1389 1392 1394 1396 1398 1401 1403 1406 1408 1411
1408 1406 1405 1403 1401 1399 1397 1395 1393 1391 1390 1388 1386 1385 1384 1382 1381 1380 1379 1378 1377 1377 1376 1376 1376 1376 1377 1378 1379 1380 1381 1382 1384 1386 1388 1391 1393 1395 1398 1400 1403 1405 1408
1405 1403 1401 1400 1398 1396 1394 1393 1391 1389 1387 1386 1384 1383 1381 1380 1379 1378 1377 1376 1375 1375 1374 1374 1373 1373 1374 1375 1376 1377 1378 1379 1381 1383 1385 1387 1390 1392 1394 1397 1399 1402 1404
1401 1400 1398 1396 1395 1393 1391 1390 1388 1387 1385 1384 1382 1380 1379 1378 1377 1376 1375 1374 1373 1373 1372 1371 1371 1371 1371 1372 1373 1374 1375 1376 1378 1380 1382 1384 1386 1388 1391 1393 1395 1398 1400
1398 1397 1395 1393 1392 1390 1389 1387 1386 1384 1383 1381 1380 1378 1377 1376 1375 1374 1373 1372 1371 1370 1370 1369 1369 1369 1369 1369 1369 1371 1372 1373 1375 1376 1378 1380 1382 1384 1387 1389 1391 1394 1396
1395 1393 1392 1391 1389 1388 1386 1385 1383 1382 1380 1379 1378 1377 1375 1374 1373 1372 1371 1370 1369 1368 1367 1367 1367 1366 1366 1366 1367 1368 1369 1370 1371 1373 1375 1376 1378 1381 1383 1385 1387 1390 1392